QPF
0.05 0.06 0.07 0.07 0.08 0.10 0.11 0.10 0.08 0.09 0.12 0.15 0.18 0.18 0.16 0.14 0.15 0.14 0.13 0.13 0.13 0.15 0.13 0.10 0.08 0.11 0.15 0.15 0.14 0.13 0.12 0.13 0.13 0.11 0.08 0.08 0.08 0.08 0.08 0.08 0.08 0.08 0.07
0.06 0.07 0.08 0.10 0.10 0.09 0.10 0.11 0.13 0.14 0.15 0.15 0.16 0.15 0.16 0.16 0.16 0.15 0.16 0.16 0.17 0.14 0.12 0.10 0.08 0.12 0.14 0.11 0.11 0.11 0.09 0.08 0.08 0.07 0.06 0.07 0.08 0.07 0.08 0.08 0.08 0.10 0.10
0.10 0.08 0.08 0.08 0.07 0.08 0.10 0.10 0.12 0.14 0.15 0.18 0.18 0.16 0.15 0.13 0.12 0.11 0.12 0.11 0.09 0.09 0.11 0.09 0.07 0.07 0.06 0.06 0.08 0.08 0.06 0.06 0.06 0.05 0.04 0.05 0.06 0.07 0.08 0.07 0.08 0.10 0.10
0.14 0.08 0.07 0.06 0.06 0.10 0.13 0.13 0.11 0.11 0.12 0.17 0.20 0.24 0.21 0.13 0.12 0.10 0.09 0.08 0.08 0.08 0.08 0.06 0.05 0.05 0.05 0.05 0.05 0.04 0.04 0.06 0.06 0.05 0.04 0.05 0.06 0.07 0.07 0.07 0.08 0.10 0.11
0.10 0.10 0.09 0.09 0.10 0.12 0.12 0.11 0.10 0.11 0.12 0.12 0.13 0.15 0.14 0.11 0.09 0.09 0.10 0.08 0.07 0.07 0.07 0.05 0.05 0.04 0.05 0.05 0.05 0.05 0.06 0.07 0.08 0.07 0.06 0.05 0.04 0.04 0.05 0.07 0.07 0.07 0.07
0.11 0.10 0.12 0.13 0.14 0.15 0.13 0.12 0.13 0.11 0.11 0.11 0.12 0.11 0.10 0.09 0.11 0.12 0.11 0.11 0.11 0.13 0.12 0.10 0.07 0.06 0.06 0.06 0.05 0.06 0.07 0.07 0.08 0.07 0.06 0.05 0.05 0.06 0.07 0.07 0.06 0.07 0.07
0.12 0.15 0.16 0.13 0.14 0.16 0.17 0.18 0.14 0.12 0.13 0.12 0.10 0.09 0.09 0.09 0.10 0.09 0.10 0.11 0.12 0.14 0.13 0.13 0.13 0.12 0.11 0.09 0.07 0.07 0.06 0.06 0.05 0.06 0.05 0.05 0.05 0.05 0.05 0.06 0.09 0.11 0.12
0.20 0.23 0.20 0.19 0.19 0.19 0.19 0.15 0.11 0.10 0.11 0.09 0.07 0.07 0.07 0.07 0.07 0.07 0.09 0.09 0.09 0.09 0.09 0.07 0.06 0.07 0.08 0.08 0.06 0.05 0.04 0.04 0.03 0.03 0.03 0.03 0.03 0.04 0.04 0.05 0.06 0.08 0.08
0.18 0.20 0.17 0.14 0.15 0.17 0.16 0.12 0.11 0.10 0.09 0.09 0.07 0.06 0.05 0.05 0.05 0.08 0.09 0.07 0.07 0.08 0.07 0.05 0.04 0.03 0.04 0.04 0.03 0.02 0.03 0.02 0.03 0.04 0.04 0.05 0.05 0.04 0.04 0.03 0.02 0.03 0.04
0.08 0.08 0.08 0.09 0.09 0.09 0.09 0.08 0.08 0.07 0.07 0.08 0.08 0.07 0.06 0.05 0.07 0.09 0.09 0.07 0.08 0.08 0.08 0.08 0.06 0.04 0.04 0.02 0.02 0.02 0.02 0.01 0.02 0.03 0.03 0.04 0.04 0.03 0.02 0.01 0.01 0.02 0.03
0.05 0.04 0.05 0.06 0.06 0.05 0.05 0.05 0.05 0.03 0.03 0.04 0.05 0.06 0.07 0.07 0.08 0.08 0.07 0.07 0.07 0.06 0.05 0.04 0.04 0.03 0.03 0.03 0.03 0.02 0.03 0.03 0.03 0.03 0.03 0.02 0.01 0.01 0.01 0.00 0.01 0.01 0.02
0.03 0.03 0.03 0.04 0.04 0.03 0.03 0.02 0.02 0.01 0.02 0.02 0.02 0.02 0.04 0.06 0.07 0.09 0.09 0.08 0.07 0.05 0.04 0.03 0.03 0.04 0.03 0.03 0.02 0.02 0.03 0.03 0.02 0.02 0.02 0.02 0.01 0.01 0.01 0.01 0.01 0.01 0.01
0.03 0.02 0.02 0.02 0.02 0.02 0.02 0.01 0.01 0.02 0.02 0.02 0.02 0.01 0.02 0.03 0.04 0.04 0.05 0.07 0.07 0.05 0.05 0.05 0.04 0.03 0.02 0.01 0.01 0.01 0.02 0.01 0.01 0.01 0.01 0.01 0.02 0.02 0.01 0.00 0.00 0.00 0.00
0.02 0.02 0.01 0.01 0.01 0.01 0.01 0.01 0.01 0.01 0.02 0.02 0.02 0.01 0.01 0.02 0.02 0.02 0.02 0.03 0.05 0.05 0.05 0.04 0.02 0.01 0.00 0.00 0.00 0.00 0.00 0.01 0.01 0.01 0.01 0.01 0.01 0.01 0.01 0.00 0.00 0.00 0.00
0.01 0.01 0.01 0.01 0.00 0.00 0.01 0.01 0.01 0.01 0.02 0.03 0.03 0.02 0.02 0.02 0.02 0.01 0.01 0.01 0.01 0.01 0.01 0.01 0.00 0.00 0.00 0.00 0.00 0.00 0.00 0.00 0.00 0.01 0.01 0.01 0.01 0.00 0.01 0.00 0.00 0.00 0.00
0.02 0.02 0.01 0.01 0.00 0.00 0.00 0.01 0.01 0.01 0.01 0.02 0.03 0.03 0.03 0.03 0.02 0.01 0.01 0.01 0.01 0.01 0.00 0.00 0.00 0.00 0.00 0.00 0.00 0.00 0.00 0.00 0.00 0.01 0.01 0.01 0.01 0.01 0.01 0.01 0.01 0.00 0.00
0.03 0.02 0.02 0.01 0.01 0.01 0.00 0.01 0.01 0.01 0.01 0.01 0.02 0.02 0.03 0.02 0.02 0.01 0.01 0.01 0.01 0.01 0.01 0.01 0.00 0.00 0.00 0.00 0.00 0.00 0.00 0.00 0.00 0.00 0.01 0.01 0.01 0.01 0.00 0.00 0.01 0.00 0.00
0.01 0.01 0.02 0.01 0.01 0.01 0.01 0.01 0.01 0.01 0.02 0.02 0.03 0.04 0.04 0.04 0.04 0.04 0.03 0.02 0.02 0.01 0.01 0.01 0.00 0.00 0.00 0.00 0.00 0.00 0.00 0.00 0.00 0.01 0.00 0.00 0.00 0.00 0.00 0.00 0.00 0.00 0.00
0.00 0.01 0.01 0.01 0.01 0.01 0.01 0.00 0.00 0.01 0.01 0.01 0.02 0.03 0.03 0.04 0.04 0.05 0.04 0.03 0.02 0.02 0.01 0.01 0.00 0.00 0.00 0.00 0.00 0.00 0.00 0.00 0.00 0.01 0.00 0.00 0.00 0.00 0.01 0.00 0.00 0.00 0.00
0.01 0.01 0.01 0.00 0.00 0.00 0.00 0.00 0.00 0.00 0.00 0.01 0.01 0.01 0.01 0.02 0.02 0.02 0.02 0.02 0.01 0.01 0.01 0.01 0.01 0.01 0.01 0.00 0.00 0.00 0.00 0.00 0.00 0.01 0.01 0.01 0.00 0.00 0.00 0.00 0.00 0.00 0.00
0.00 0.00 0.00 0.00 0.00 0.00 0.00 0.00 0.00 0.00 0.01 0.01 0.01 0.01 0.01 0.01 0.01 0.01 0.01 0.01 0.01 0.01 0.01 0.01 0.01 0.01 0.00 0.00 0.00 0.00 0.00 0.00 0.01 0.00 0.01 0.01 0.01 0.01 0.01 0.00 0.00 0.00 0.00
0.00 0.00 0.01 0.01 0.01 0.01 0.01 0.01 0.01 0.01 0.01 0.01 0.01 0.01 0.00 0.00 0.00 0.00 0.00 0.00 0.00 0.01 0.01 0.01 0.00 0.00 0.00 0.01 0.01 0.01 0.01 0.00 0.01 0.01 0.01 0.01 0.01 0.01 0.00 0.00 0.00 0.00 0.00
0.01 0.01 0.01 0.01 0.01 0.02 0.01 0.01 0.01 0.01 0.01 0.01 0.01 0.00 0.00 0.00 0.00 0.00 0.00 0.01 0.01 0.01 0.01 0.01 0.00 0.00 0.00 0.01 0.02 0.02 0.02 0.02 0.01 0.01 0.02 0.02 0.02 0.02 0.01 0.01 0.01 0.01 0.00
0.02 0.03 0.03 0.02 0.02 0.01 0.01 0.01 0.01 0.00 0.01 0.00 0.00 0.00 0.00 0.00 0.00 0.01 0.01 0.01 0.01 0.01 0.01 0.01 0.00 0.00 0.00 0.00 0.01 0.01 0.02 0.03 0.03 0.03 0.03 0.03 0.03 0.02 0.02 0.01 0.01 0.00 0.00
0.02 0.03 0.04 0.03 0.02 0.02 0.02 0.02 0.02 0.02 0.01 0.01 0.01 0.01 0.01 0.01 0.01 0.02 0.02 0.01 0.01 0.00 0.00 0.00 0.00 0.00 0.00 0.00 0.00 0.00 0.01 0.01 0.02 0.02 0.02 0.02 0.02 0.01 0.01 0.01 0.00 0.00 0.00
0.02 0.02 0.03 0.02 0.02 0.03 0.02 0.02 0.02 0.02 0.02 0.03 0.02 0.01 0.01 0.01 0.01 0.00 0.00 0.00 0.00 0.00 0.00 0.00 0.00 0.00 0.00 0.00 0.00 0.00 0.00 0.00 0.01 0.00 0.00 0.00 0.00 0.00 0.00 0.00 0.00 0.00 0.00
MSLP
1017.92 1018.10 1018.31 1018.49 1018.62 1018.66 1018.62 1018.51 1018.37 1018.22 1018.09 1017.97 1017.86 1017.71 1017.49 1017.19 1016.77 1016.26 1015.67 1015.06 1014.47 1013.97 1013.61 1013.40 1013.35 1013.44 1013.65 1013.93 1014.25 1014.57 1014.87 1015.13 1015.34 1015.51 1015.63 1015.71 1015.75 1015.75 1015.73 1015.69 1015.64 1015.60 1015.59
1018.73 1018.92 1019.12 1019.28 1019.38 1019.39 1019.32 1019.19 1019.04 1018.89 1018.76 1018.65 1018.55 1018.43 1018.25 1017.99 1017.64 1017.20 1016.68 1016.13 1015.59 1015.12 1014.74 1014.49 1014.36 1014.36 1014.46 1014.64 1014.86 1015.10 1015.34 1015.56 1015.77 1015.95 1016.10 1016.22 1016.30 1016.34 1016.34 1016.32 1016.28 1016.24 1016.23
1019.49 1019.72 1019.92 1020.06 1020.13 1020.12 1020.03 1019.89 1019.73 1019.58 1019.46 1019.36 1019.28 1019.19 1019.06 1018.87 1018.59 1018.24 1017.82 1017.36 1016.90 1016.48 1016.12 1015.86 1015.69 1015.61 1015.62 1015.69 1015.80 1015.95 1016.12 1016.29 1016.47 1016.64 1016.79 1016.93 1017.03 1017.10 1017.13 1017.12 1017.09 1017.06 1017.03
1020.15 1020.40 1020.62 1020.76 1020.82 1020.79 1020.70 1020.56 1020.41 1020.27 1020.17 1020.09 1020.04 1019.98 1019.90 1019.77 1019.58 1019.31 1018.99 1018.63 1018.27 1017.91 1017.60 1017.35 1017.16 1017.03 1016.97 1016.95 1016.97 1017.03 1017.12 1017.23 1017.36 1017.50 1017.64 1017.77 1017.88 1017.96 1018.00 1018.01 1017.98 1017.95 1017.92
1020.65 1020.95 1021.18 1021.34 1021.40 1021.38 1021.30 1021.19 1021.07 1020.96 1020.89 1020.85 1020.83 1020.81 1020.77 1020.69 1020.56 1020.37 1020.13 1019.86 1019.57 1019.29 1019.03 1018.81 1018.62 1018.47 1018.36 1018.27 1018.23 1018.21 1018.22 1018.27 1018.34 1018.44 1018.56 1018.67 1018.77 1018.84 1018.88 1018.88 1018.86 1018.82 1018.78
1021.00 1021.34 1021.61 1021.78 1021.87 1021.88 1021.83 1021.76 1021.69 1021.64 1021.62 1021.62 1021.64 1021.65 1021.64 1021.59 1021.50 1021.36 1021.18 1020.97 1020.74 1020.52 1020.30 1020.11 1019.94 1019.78 1019.65 1019.53 1019.43 1019.36 1019.32 1019.31 1019.33 1019.39 1019.46 1019.54 1019.61 1019.66 1019.69 1019.68 1019.64 1019.59 1019.54
1021.23 1021.61 1021.91 1022.12 1022.24 1022.29 1022.30 1022.30 1022.30 1022.32 1022.36 1022.41 1022.46 1022.50 1022.51 1022.48 1022.39 1022.27 1022.11 1021.92 1021.73 1021.54 1021.36 1021.20 1021.04 1020.90 1020.76 1020.63 1020.51 1020.41 1020.33 1020.28 1020.26 1020.27 1020.30 1020.34 1020.37 1020.39 1020.39 1020.36 1020.31 1020.25 1020.17
1021.39 1021.82 1022.15 1022.39 1022.56 1022.67 1022.75 1022.82 1022.90 1022.99 1023.10 1023.21 1023.30 1023.36 1023.37 1023.33 1023.23 1023.09 1022.92 1022.73 1022.55 1022.37 1022.21 1022.06 1021.93 1021.80 1021.68 1021.55 1021.43 1021.32 1021.23 1021.15 1021.10 1021.07 1021.06 1021.06 1021.05 1021.04 1021.01 1020.95 1020.88 1020.80 1020.71
1021.56 1022.02 1022.39 1022.67 1022.88 1023.05 1023.19 1023.34 1023.50 1023.67 1023.84 1024.00 1024.12 1024.19 1024.19 1024.13 1024.01 1023.84 1023.65 1023.44 1023.24 1023.06 1022.90 1022.77 1022.66 1022.55 1022.45 1022.34 1022.24 1022.13 1022.03 1021.94 1021.87 1021.81 1021.77 1021.73 1021.69 1021.64 1021.57 1021.49 1021.40 1021.29 1021.19
1021.79 1022.28 1022.67 1022.98 1023.24 1023.46 1023.66 1023.88 1024.10 1024.34 1024.56 1024.75 1024.89 1024.97 1024.96 1024.88 1024.73 1024.53 1024.30 1024.07 1023.86 1023.68 1023.53 1023.41 1023.31 1023.23 1023.15 1023.07 1022.99 1022.89 1022.80 1022.71 1022.63 1022.55 1022.48 1022.41 1022.33 1022.25 1022.15 1022.04 1021.93 1021.81 1021.69
1022.10 1022.61 1023.03 1023.37 1023.65 1023.91 1024.17 1024.43 1024.70 1024.98 1025.23 1025.45 1025.60 1025.67 1025.65 1025.55 1025.38 1025.16 1024.91 1024.67 1024.46 1024.28 1024.14 1024.04 1023.97 1023.91 1023.86 1023.81 1023.74 1023.67 1023.59 1023.50 1023.41 1023.31 1023.22 1023.12 1023.02 1022.91 1022.78 1022.65 1022.51 1022.37 1022.24
1022.48 1023.00 1023.44 1023.80 1024.11 1024.40 1024.69 1024.98 1025.28 1025.57 1025.84 1026.05 1026.20 1026.26 1026.23 1026.12 1025.94 1025.72 1025.49 1025.26 1025.06 1024.90 1024.79 1024.72 1024.67 1024.65 1024.63 1024.60 1024.55 1024.49 1024.41 1024.33 1024.23 1024.12 1024.01 1023.90 1023.77 1023.63 1023.48 1023.32 1023.16 1023.00 1022.85
1022.88 1023.42 1023.87 1024.25 1024.59 1024.90 1025.21 1025.51 1025.81 1026.10 1026.35 1026.55 1026.68 1026.73 1026.70 1026.59 1026.42 1026.22 1026.01 1025.82 1025.66 1025.55 1025.47 1025.44 1025.44 1025.44 1025.45 1025.44 1025.41 1025.35 1025.28 1025.19 1025.09 1024.97 1024.84 1024.71 1024.56 1024.40 1024.23 1024.05 1023.86 1023.68 1023.51
1023.23 1023.79 1024.26 1024.67 1025.03 1025.36 1025.68 1025.98 1026.27 1026.54 1026.77 1026.95 1027.05 1027.09 1027.05 1026.95 1026.81 1026.65 1026.49 1026.35 1026.25 1026.20 1026.18 1026.20 1026.23 1026.27 1026.29 1026.30 1026.28 1026.23 1026.15 1026.05 1025.94 1025.81 1025.67 1025.52 1025.35 1025.18 1024.98 1024.78 1024.57 1024.36 1024.15
1023.47 1024.06 1024.56 1025.00 1025.40 1025.75 1026.07 1026.38 1026.65 1026.89 1027.09 1027.23 1027.31 1027.33 1027.30 1027.22 1027.11 1027.00 1026.90 1026.84 1026.81 1026.82 1026.87 1026.93 1027.01 1027.07 1027.12 1027.13 1027.11 1027.06 1026.97 1026.86 1026.74 1026.60 1026.44 1026.28 1026.10 1025.90 1025.69 1025.47 1025.23 1025.00 1024.76
1023.56 1024.18 1024.72 1025.21 1025.64 1026.02 1026.36 1026.67 1026.93 1027.15 1027.32 1027.43 1027.49 1027.50 1027.47 1027.41 1027.35 1027.29 1027.26 1027.27 1027.31 1027.38 1027.49 1027.60 1027.71 1027.79 1027.85 1027.87 1027.85 1027.78 1027.69 1027.57 1027.43 1027.28 1027.11 1026.93 1026.74 1026.54 1026.31 1026.07 1025.82 1025.55 1025.28
1023.49 1024.14 1024.73 1025.26 1025.74 1026.16 1026.53 1026.84 1027.11 1027.31 1027.46 1027.56 1027.61 1027.61 1027.60 1027.57 1027.54 1027.54 1027.57 1027.63 1027.74 1027.87 1028.01 1028.16 1028.29 1028.40 1028.46 1028.48 1028.45 1028.38 1028.28 1028.15 1028.00 1027.84 1027.66 1027.48 1027.28 1027.06 1026.83 1026.58 1026.30 1026.02 1025.73
1023.30 1023.98 1024.61 1025.19 1025.71 1026.17 1026.57 1026.90 1027.18 1027.39 1027.54 1027.63 1027.68 1027.70 1027.70 1027.70 1027.72 1027.76 1027.84 1027.95 1028.09 1028.26 1028.44 1028.60 1028.75 1028.86 1028.92 1028.93 1028.90 1028.83 1028.72 1028.59 1028.44 1028.28 1028.10 1027.91 1027.71 1027.49 1027.25 1026.99 1026.70 1026.41 1026.10
1023.03 1023.72 1024.38 1024.99 1025.55 1026.04 1026.47 1026.84 1027.14 1027.36 1027.53 1027.64 1027.72 1027.76 1027.79 1027.82 1027.87 1027.95 1028.07 1028.21 1028.38 1028.56 1028.75 1028.92 1029.06 1029.17 1029.23 1029.24 1029.21 1029.14 1029.04 1028.91 1028.77 1028.61 1028.43 1028.25 1028.04 1027.82 1027.58 1027.32 1027.04 1026.74 1026.43
1022.76 1023.44 1024.09 1024.71 1025.28 1025.80 1026.26 1026.65 1026.98 1027.24 1027.44 1027.59 1027.70 1027.78 1027.85 1027.92 1028.01 1028.12 1028.25 1028.41 1028.58 1028.77 1028.95 1029.11 1029.25 1029.34 1029.40 1029.42 1029.39 1029.33 1029.24 1029.13 1029.00 1028.85 1028.68 1028.50 1028.30 1028.09 1027.85 1027.59 1027.31 1027.02 1026.72
1022.54 1023.17 1023.79 1024.38 1024.94 1025.46 1025.93 1026.34 1026.70 1027.00 1027.24 1027.44 1027.60 1027.73 1027.85 1027.97 1028.09 1028.22 1028.37 1028.53 1028.70 1028.87 1029.03 1029.18 1029.30 1029.39 1029.45 1029.47 1029.45 1029.41 1029.34 1029.25 1029.14 1029.01 1028.86 1028.69 1028.50 1028.29 1028.05 1027.80 1027.54 1027.26 1026.98
1022.39 1022.94 1023.48 1024.02 1024.54 1025.03 1025.49 1025.92 1026.30 1026.64 1026.94 1027.19 1027.41 1027.60 1027.77 1027.93 1028.08 1028.24 1028.39 1028.54 1028.70 1028.85 1028.99 1029.12 1029.22 1029.31 1029.36 1029.40 1029.40 1029.39 1029.35 1029.29 1029.21 1029.10 1028.97 1028.81 1028.63 1028.43 1028.20 1027.95 1027.70 1027.44 1027.17
1022.30 1022.74 1023.19 1023.64 1024.09 1024.55 1024.99 1025.41 1025.81 1026.19 1026.53 1026.84 1027.12 1027.36 1027.59 1027.79 1027.97 1028.14 1028.29 1028.44 1028.58 1028.70 1028.82 1028.92 1029.02 1029.10 1029.16 1029.21 1029.24 1029.26 1029.26 1029.23 1029.18 1029.11 1029.00 1028.86 1028.68 1028.48 1028.26 1028.02 1027.78 1027.53 1027.28
1022.26 1022.57 1022.91 1023.26 1023.64 1024.03 1024.44 1024.85 1025.26 1025.66 1026.04 1026.40 1026.72 1027.02 1027.29 1027.52 1027.73 1027.91 1028.06 1028.20 1028.32 1028.43 1028.52 1028.61 1028.70 1028.78 1028.85 1028.92 1028.98 1029.03 1029.07 1029.08 1029.07 1029.02 1028.93 1028.81 1028.65 1028.46 1028.24 1028.00 1027.76 1027.52 1027.28
1022.20 1022.40 1022.63 1022.90 1023.20 1023.54 1023.90 1024.29 1024.70 1025.11 1025.51 1025.90 1026.26 1026.59 1026.89 1027.15 1027.37 1027.56 1027.71 1027.84 1027.95 1028.04 1028.12 1028.20 1028.28 1028.37 1028.46 1028.55 1028.64 1028.73 1028.80 1028.85 1028.87 1028.85 1028.79 1028.68 1028.53 1028.34 1028.13 1027.89 1027.65 1027.41 1027.17
1022.11 1022.22 1022.37 1022.56 1022.80 1023.09 1023.42 1023.78 1024.18 1024.58 1024.99 1025.39 1025.77 1026.12 1026.43 1026.70 1026.93 1027.12 1027.27 1027.39 1027.49 1027.57 1027.64 1027.72 1027.81 1027.90 1028.01 1028.13 1028.25 1028.36 1028.47 1028.55 1028.59 1028.60 1028.56 1028.47 1028.33 1028.15 1027.94 1027.70 1027.45 1027.20 1026.96
Thickness
5787 5784 5780 5777 5774 5771 5768 5765 5763 5760 5757 5755 5753 5752 5750 5748 5746 5744 5741 5740 5738 5737 5736 5734 5732 5731 5729 5728 5726 5724 5721 5717 5711 5710 5710 5710 5709 5707 5706 5704 5702 5701 5700
5786 5782 5778 5775 5772 5768 5765 5763 5761 5758 5755 5753 5751 5749 5747 5745 5743 5740 5737 5736 5735 5733 5732 5731 5729 5728 5725 5723 5721 5719 5716 5714 5709 5704 5703 5702 5700 5700 5698 5696 5694 5693 5692
5783 5778 5775 5771 5768 5765 5763 5760 5758 5755 5752 5750 5747 5745 5743 5740 5738 5737 5735 5733 5732 5730 5728 5726 5725 5723 5720 5718 5716 5713 5711 5708 5705 5700 5696 5695 5693 5692 5689 5687 5686 5684 5683
5779 5775 5771 5768 5765 5762 5759 5757 5753 5751 5748 5745 5743 5741 5739 5736 5734 5733 5731 5729 5728 5726 5724 5722 5720 5718 5716 5713 5711 5708 5705 5701 5697 5693 5689 5686 5684 5683 5681 5678 5675 5674 5672
5775 5770 5767 5764 5761 5758 5755 5752 5749 5746 5743 5741 5738 5736 5734 5732 5730 5728 5727 5725 5722 5720 5718 5716 5714 5712 5710 5708 5705 5701 5699 5694 5690 5685 5681 5678 5675 5672 5670 5668 5665 5663 5661
5770 5765 5762 5758 5755 5752 5748 5746 5742 5739 5736 5735 5732 5730 5728 5726 5725 5723 5721 5718 5716 5713 5709 5707 5706 5703 5701 5699 5697 5695 5692 5687 5682 5677 5672 5669 5666 5664 5662 5660 5656 5654 5649
5763 5759 5756 5752 5749 5745 5742 5739 5735 5732 5730 5727 5724 5722 5720 5719 5718 5716 5715 5712 5709 5705 5702 5699 5697 5694 5692 5689 5687 5685 5682 5679 5676 5671 5665 5661 5659 5657 5655 5651 5647 5643 5639
5756 5753 5750 5747 5743 5739 5735 5731 5729 5726 5723 5720 5716 5714 5713 5711 5710 5709 5707 5704 5700 5697 5694 5691 5688 5684 5682 5680 5677 5673 5670 5668 5665 5662 5659 5654 5652 5650 5647 5643 5639 5635 5631
5750 5747 5744 5741 5737 5732 5728 5724 5722 5719 5716 5712 5709 5707 5705 5703 5702 5702 5699 5696 5691 5688 5685 5682 5679 5676 5673 5671 5668 5663 5659 5656 5654 5651 5649 5646 5643 5640 5637 5633 5628 5624 5618
5744 5741 5738 5734 5731 5726 5721 5718 5716 5713 5709 5705 5702 5699 5698 5696 5695 5693 5691 5687 5682 5678 5674 5671 5669 5666 5663 5660 5657 5653 5648 5644 5642 5639 5637 5634 5632 5628 5625 5622 5617 5612 5606
5739 5736 5732 5728 5724 5720 5716 5712 5709 5706 5702 5697 5694 5691 5689 5688 5686 5684 5682 5678 5674 5669 5664 5660 5657 5655 5652 5649 5646 5643 5639 5635 5631 5628 5624 5621 5619 5616 5613 5610 5607 5602 5596
5732 5729 5725 5721 5718 5714 5709 5705 5702 5698 5694 5689 5686 5683 5680 5679 5677 5675 5672 5669 5665 5661 5655 5650 5647 5645 5642 5639 5636 5633 5630 5626 5621 5616 5612 5608 5605 5602 5600 5597 5594 5591 5587
5724 5720 5716 5713 5709 5706 5702 5699 5695 5691 5687 5682 5679 5675 5671 5669 5667 5665 5663 5660 5656 5651 5646 5642 5639 5635 5632 5629 5625 5622 5619 5614 5609 5604 5599 5595 5593 5590 5588 5585 5582 5579 5576
5715 5711 5708 5703 5699 5696 5694 5691 5688 5684 5680 5676 5671 5667 5663 5661 5658 5656 5653 5650 5646 5642 5637 5632 5629 5625 5622 5618 5615 5611 5607 5603 5598 5593 5588 5585 5582 5579 5576 5572 5568 5565 5561
5707 5702 5698 5694 5690 5685 5682 5679 5677 5675 5674 5670 5665 5662 5658 5653 5650 5649 5645 5641 5637 5632 5627 5623 5618 5614 5609 5606 5602 5599 5595 5592 5587 5583 5579 5574 5571 5568 5564 5561 5557 5552 5548
5700 5694 5690 5685 5681 5677 5674 5670 5668 5667 5665 5663 5660 5657 5652 5649 5644 5641 5637 5633 5629 5624 5618 5611 5606 5602 5598 5594 5591 5587 5584 5580 5576 5573 5569 5565 5561 5557 5553 5550 5546 5542 5537
5695 5690 5684 5680 5675 5671 5669 5666 5661 5656 5655 5653 5651 5648 5645 5640 5636 5633 5629 5624 5620 5615 5608 5601 5596 5592 5588 5584 5581 5577 5573 5570 5566 5562 5559 5555 5551 5547 5543 5539 5536 5531 5527
5689 5685 5680 5675 5671 5667 5663 5660 5657 5653 5647 5642 5639 5637 5635 5632 5628 5624 5620 5616 5608 5604 5598 5593 5588 5584 5580 5576 5571 5568 5564 5560 5557 5553 5549 5546 5542 5538 5534 5530 5526 5522 5518
5683 5679 5675 5670 5666 5662 5657 5653 5649 5645 5640 5635 5631 5628 5626 5623 5619 5615 5612 5606 5600 5594 5589 5584 5580 5577 5572 5568 5563 5559 5555 5551 5548 5544 5540 5536 5533 5529 5525 5521 5518 5515 5510
5677 5674 5671 5666 5661 5656 5652 5647 5642 5638 5633 5629 5625 5621 5618 5614 5609 5605 5601 5597 5592 5587 5582 5578 5573 5569 5565 5560 5555 5551 5547 5543 5539 5535 5531 5528 5524 5521 5516 5513 5509 5505 5501
5671 5668 5665 5661 5656 5652 5647 5643 5638 5633 5628 5623 5619 5616 5613 5608 5602 5598 5593 5589 5585 5580 5575 5571 5566 5561 5557 5552 5548 5544 5539 5534 5530 5526 5522 5519 5516 5512 5508 5504 5501 5497 5493
5665 5661 5658 5654 5650 5646 5641 5637 5633 5628 5623 5618 5613 5609 5605 5600 5595 5591 5586 5582 5578 5574 5570 5565 5559 5554 5550 5545 5540 5535 5531 5526 5522 5518 5514 5511 5507 5503 5500 5496 5492 5488 5485
5659 5655 5652 5648 5644 5640 5635 5631 5626 5622 5617 5612 5608 5602 5598 5593 5588 5584 5580 5576 5572 5567 5563 5558 5553 5547 5542 5538 5533 5529 5524 5519 5514 5510 5506 5502 5499 5495 5491 5487 5484 5480 5477
5652 5649 5645 5641 5637 5633 5629 5624 5620 5616 5611 5606 5601 5596 5591 5587 5582 5578 5574 5569 5565 5560 5555 5550 5545 5540 5535 5530 5526 5522 5517 5513 5509 5504 5500 5496 5492 5488 5484 5480 5477 5474 5470
5645 5641 5638 5634 5631 5627 5623 5618 5614 5610 5605 5600 5595 5590 5585 5580 5576 5571 5567 5562 5558 5553 5547 5543 5538 5533 5528 5523 5518 5514 5510 5506 5502 5498 5494 5490 5485 5481 5477 5474 5470 5467 5464
5638 5634 5630 5627 5623 5620 5616 5612 5608 5603 5598 5594 5589 5584 5579 5574 5570 5565 5560 5555 5550 5545 5540 5535 5530 5526 5521 5516 5511 5507 5503 5499 5495 5490 5486 5482 5478 5474 5470 5467 5464 5461 5458